Davenport, IA

8:13 AM CST on February 10, 2016 (GMT -0600)
Davenport Municipal

Weather History for KDVN - March, 2013

Change the Weather History Date:

Sunday, March 10, 2013

  Actual Average Record
Temperature  
Mean Temperature 40 °F 36 °F  
Max Temperature 45 °F 45 °F 73 °F (1955)
Min Temperature 34 °F 26 °F 0 °F (2003)
Degree Days  
Heating Degree Days 25 30  
Month to date heating degree days 377 316  
Since 1 July heating degree days 5163 5341  
Cooling Degree Days 0 0  
Month to date cooling degree days 0 0  
Year to date cooling degree days 0 0  
Moisture  
Dew Point 40 °F    
Average Humidity 95    
Maximum Humidity 100    
Minimum Humidity 89    
Precipitation  
Precipitation 1.01 in 0.08 in 1.01 in (2013)
Month to date precipitation 1.66 0.73  
Year to date precipitation 5.36 3.26  
Snow  
Snow 0.00 in - - ()
Month to date snowfall 5.1  
Since 1 July snowfall 23.7  
Snow Depth 0.00 in    
Sea Level Pressure  
Sea Level Pressure 29.67 in    
Wind  
Wind Speed 8 mph (ESE)    
Max Wind Speed 24 mph    
Max Gust Speed 30 mph    
Visibility 1 miles    
Events Fog , Rain    
T = Trace of Precipitation, MM = Missing Value Source: NWS Daily Summary

Daily Weather History Graph

Daily Weather History Graph

Search for Another Location

Airport or City:

Trip Planner

Search our weather history database for the weather conditions in past years. The results will help you decide how hot, cold, wet, or windy it might be!

Date:

Astronomy

Mar. 10, 2013 Rise Set
Actual Time 7:22 AM CDT 7:03 PM CDT
Civil Twilight 6:54 AM CDT 7:31 PM CDT
Nautical Twilight 6:22 AM CDT 8:03 PM CDT
Astronomical Twilight 5:49 AM CDT 8:35 PM CDT
Moon 6:22 AM CDT 6:11 PM CDT
Length of Visible Light 12h 36m
Length of Day
11h 41m
Waning Crescent, 2% of the Moon is Illuminated
Mar 10
Waning Crescent
Mar 11
New
Mar 19
First Quarter
Mar 27
Full
Apr 2
Last Quarter

Hourly Weather History & Observations

Time (CDT) Temp. Windchill Dew Point Humidity Pressure Visibility Wind Dir Wind Speed Gust Speed Precip Events Conditions
12:52 AM 44.1 °F 35.9 °F 41.0 °F 89% 29.76 in 4.0 mi South 19.6 mph 27.6 mph 0.12 in Rain Light Rain
1:34 AM 44.6 °F 36.1 °F 42.8 °F 93% 29.71 in 2.5 mi South 21.9 mph 29.9 mph 0.08 in Rain Rain
1:43 AM 44.6 °F 35.9 °F 42.8 °F 93% 29.71 in 3.0 mi South 23.0 mph - 0.10 in Rain Rain
1:52 AM 44.1 °F 35.7 °F 43.0 °F 96% 29.73 in 2.5 mi South 20.7 mph - 0.13 in Rain Rain
3:06 AM 44.6 °F 37.2 °F 42.8 °F 93% 29.71 in 3.0 mi South 17.3 mph - 0.02 in Rain Light Rain
3:44 AM 44.6 °F 37.2 °F 42.8 °F 93% 29.71 in 3.0 mi South 17.3 mph - 0.04 in Rain Light Rain
3:52 AM 44.1 °F 37.1 °F 43.0 °F 96% 29.72 in 3.0 mi South 15.0 mph - 0.04 in Rain Light Rain
4:13 AM 44.6 °F 37.8 °F 42.8 °F 93% 29.70 in 3.0 mi South 15.0 mph - 0.01 in Rain Light Rain
4:44 AM 44.6 °F 38.4 °F 42.8 °F 93% 29.71 in 2.5 mi South 12.7 mph - 0.04 in Rain Light Rain
4:52 AM 44.1 °F 37.7 °F 43.0 °F 96% 29.72 in 2.5 mi South 12.7 mph - 0.04 in Rain Light Rain
5:12 AM 42.8 °F 36.6 °F 42.8 °F 100% 29.70 in 1.0 mi SSE 11.5 mph - 0.02 in Rain Light Rain
5:21 AM 42.8 °F 35.4 °F 42.8 °F 100% 29.68 in 0.8 mi SE 15.0 mph - 0.02 in Rain Light Rain
5:32 AM 42.8 °F 34.0 °F 42.8 °F 100% 29.64 in 0.5 mi SE 20.7 mph - 0.03 in Fog , Rain Light Rain
5:39 AM 42.8 °F 34.3 °F 42.8 °F 100% 29.60 in 0.8 mi ESE 19.6 mph - 0.03 in Rain Light Rain
5:44 AM 42.8 °F 34.8 °F 42.8 °F 100% 29.61 in 1.2 mi ESE 17.3 mph - 0.03 in   Overcast
5:50 AM 42.8 °F 34.5 °F 42.8 °F 100% 29.61 in 2.5 mi ESE 18.4 mph 25.3 mph 0.03 in   Mostly Cloudy
5:52 AM 43.0 °F 35.1 °F 42.1 °F 97% 29.62 in 2.5 mi ESE 17.3 mph 25.3 mph 0.03 in   Mostly Cloudy
5:55 AM 42.8 °F 35.8 °F 42.8 °F 100% 29.62 in 3.0 mi SE 13.8 mph 25.3 mph N/A   Mostly Cloudy
6:07 AM 42.8 °F 36.6 °F 41.0 °F 93% 29.71 in 4.0 mi SSW 11.5 mph - N/A   Mostly Cloudy
6:27 AM 42.8 °F 37.5 °F 42.8 °F 100% 29.72 in 4.0 mi South 9.2 mph - N/A   Overcast
6:47 AM 41.0 °F 36.4 °F 39.2 °F 93% 29.69 in 3.0 mi SE 6.9 mph - N/A   Overcast
6:52 AM 41.0 °F 35.8 °F 39.0 °F 93% 29.70 in 3.0 mi SE 8.1 mph - N/A   Overcast
7:15 AM 41.0 °F 36.4 °F 39.2 °F 93% 29.69 in 3.0 mi SE 6.9 mph - N/A   Overcast
7:41 AM 41.0 °F 38.0 °F 39.2 °F 93% 29.72 in 2.5 mi SE 4.6 mph - N/A   Overcast
7:52 AM 41.0 °F 36.4 °F 39.9 °F 96% 29.73 in 2.5 mi SE 6.9 mph - N/A   Overcast
8:03 AM 41.0 °F 35.8 °F 39.2 °F 93% 29.72 in 1.5 mi SE 8.1 mph - N/A   Overcast
8:30 AM 42.8 °F 38.0 °F 39.2 °F 87% 29.73 in 1.2 mi SE 8.1 mph - N/A   Overcast
8:52 AM 42.1 °F 38.4 °F 41.0 °F 96% 29.73 in 1.0 mi ESE 5.8 mph - N/A   Overcast
9:04 AM 42.8 °F 38.6 °F 41.0 °F 93% 29.71 in 1.0 mi ESE 6.9 mph - N/A   Overcast
9:23 AM 42.8 °F 38.6 °F 41.0 °F 93% 29.71 in 0.8 mi ESE 6.9 mph - N/A   Overcast
9:52 AM 42.1 °F 38.4 °F 41.0 °F 96% 29.74 in 0.8 mi SE 5.8 mph - N/A   Overcast
10:29 AM 42.8 °F 41.1 °F 42.8 °F 100% 29.72 in 0.8 mi East 3.5 mph - 0.00 in Rain Light Rain
10:42 AM 41.0 °F 37.1 °F 41.0 °F 100% 29.72 in 0.2 mi North 5.8 mph - 0.00 in Fog , Rain Light Rain
10:52 AM 39.9 °F 35.1 °F 39.0 °F 97% 29.74 in 0.2 mi NNE 6.9 mph - 0.00 in Fog , Rain Light Rain
11:06 AM 39.2 °F 34.2 °F 39.2 °F 100% 29.69 in 0.2 mi NE 6.9 mph - 0.01 in Fog , Rain Light Rain
11:52 AM 39.9 °F 34.5 °F 39.0 °F 97% 29.72 in 0.2 mi NE 8.1 mph - 0.07 in Fog , Rain Light Rain
12:15 PM 39.2 °F 34.2 °F 39.2 °F 100% 29.71 in 0.5 mi ENE 6.9 mph - 0.07 in Fog , Rain Heavy Rain
12:37 PM 39.2 °F 33.0 °F 37.4 °F 93% 29.70 in 0.5 mi NNE 9.2 mph - 0.12 in Fog , Rain Rain
12:52 PM 39.9 °F 34.5 °F 39.0 °F 97% 29.72 in 0.8 mi NE 8.1 mph - 0.16 in Rain Rain
1:25 PM 39.2 °F 33.0 °F 39.2 °F 100% 29.68 in 1.0 mi NE 9.2 mph - 0.06 in Rain Light Rain
1:52 PM 39.0 °F 32.8 °F 37.9 °F 96% 29.69 in 1.2 mi ENE 9.2 mph - 0.09 in Rain Rain
2:29 PM 41.0 °F 35.8 °F 39.2 °F 93% 29.64 in 1.0 mi ENE 8.1 mph - 0.08 in Rain Rain
2:38 PM 41.0 °F 35.2 °F 39.2 °F 93% 29.66 in 1.0 mi East 9.2 mph - 0.09 in Rain Rain
2:44 PM 41.0 °F 35.8 °F 39.2 °F 93% 29.65 in 0.8 mi ENE 8.1 mph - 0.10 in Rain Rain
2:52 PM 41.0 °F 35.2 °F 39.9 °F 96% 29.67 in 1.2 mi East 9.2 mph - 0.11 in Rain Rain
3:52 PM 41.0 °F - 39.9 °F 96% 29.66 in 0.5 mi Calm Calm - 0.06 in Fog , Rain Light Rain
4:13 PM 42.8 °F 38.0 °F 41.0 °F 93% 29.62 in 0.8 mi ENE 8.1 mph - 0.02 in Rain Light Rain
4:32 PM 41.0 °F 34.7 °F 39.2 °F 93% 29.57 in 0.5 mi ENE 10.4 mph - 0.03 in Fog , Rain Light Rain
4:40 PM 42.8 °F 37.0 °F 41.0 °F 93% 29.57 in 0.2 mi ENE 10.4 mph - 0.03 in Fog Fog
4:52 PM 41.0 °F 34.3 °F 41.0 °F 100% 29.58 in 0.2 mi NE 11.5 mph - 0.03 in Fog Fog
5:52 PM 39.9 °F 35.8 °F 39.9 °F 100% 29.61 in 0.2 mi East 5.8 mph - 0.01 in Fog , Rain Light Rain
6:26 PM 39.2 °F 35.0 °F 39.2 °F 100% 29.62 in 0.8 mi WSW 5.8 mph - 0.07 in Rain Rain
6:35 PM 39.2 °F 37.0 °F 39.2 °F 100% 29.62 in 1.0 mi West 3.5 mph - 0.09 in Rain Rain
6:45 PM 39.2 °F - 39.2 °F 100% 29.61 in 0.8 mi Calm Calm - 0.10 in Rain Light Rain
6:52 PM 39.0 °F 35.7 °F 37.9 °F 96% 29.62 in 0.5 mi North 4.6 mph - 0.11 in Fog , Rain Light Rain
7:02 PM 39.2 °F - 37.4 °F 93% 29.62 in 0.2 mi Calm Calm - 0.01 in Fog , Rain Light Rain
7:18 PM 39.2 °F - 39.2 °F 100% 29.62 in 0.5 mi Calm Calm - 0.01 in Fog , Rain Light Rain
7:29 PM 37.4 °F 34.9 °F 37.4 °F 100% 29.62 in 0.2 mi NW 3.5 mph - 0.01 in Fog Fog
7:52 PM 37.0 °F 33.3 °F 37.0 °F 100% 29.63 in 0.2 mi NNW 4.6 mph - 0.01 in Fog , Rain Light Rain
8:05 PM 37.4 °F 34.9 °F 37.4 °F 100% 29.62 in 0.5 mi North 3.5 mph - 0.01 in Fog , Rain Light Rain
8:20 PM 37.4 °F 34.9 °F 37.4 °F 100% 29.62 in 0.5 mi NNE 3.5 mph - 0.01 in Fog , Rain Light Rain
8:52 PM 37.0 °F - 36.0 °F 96% 29.64 in 0.5 mi Calm Calm - 0.01 in Fog Fog
9:17 PM 35.6 °F 30.7 °F 35.6 °F 100% 29.63 in 0.2 mi West 5.8 mph - N/A Fog Fog
9:21 PM 35.6 °F 30.7 °F 35.6 °F 100% 29.63 in 0.5 mi West 5.8 mph - N/A Fog Fog
9:34 PM 35.6 °F 31.7 °F 35.6 °F 100% 29.63 in 0.2 mi West 4.6 mph - N/A Fog Fog
10:52 PM 36.0 °F 31.1 °F 35.1 °F 97% 29.67 in 0.2 mi WSW 5.8 mph - N/A Fog Fog
11:52 PM 35.1 °F 31.0 °F 34.0 °F 96% 29.65 in 0.2 mi NW 4.6 mph - N/A Fog Fog
12:52 AM 34.0 °F 31.0 °F 34.0 °F 100% 29.65 in 0.2 mi WSW 3.5 mph - N/A Fog Fog